Snowfall_Accumulation
0.0 0.0 0.0 0.0 0.0 0.0 0.0 0.0 0.0 0.0 0.0 0.0 0.0 0.0 0.0 0.0 0.0 0.0 0.0 0.0 0.0 0.0 0.0 0.0 0.0 0.0 0.0 0.0 0.0 0.0 0.0 0.0 0.0 0.0 0.0 0.0 0.0 0.0 0.0 0.0 0.0 0.0 0.0 0.0 0.0 0.0 0.0
0.0 0.0 0.0 0.0 0.0 0.0 0.0 0.0 0.0 0.0 0.0 0.0 0.0 0.0 0.0 0.0 0.0 0.0 0.0 0.0 0.0 0.0 0.0 0.0 0.0 0.0 0.0 0.0 0.0 0.0 0.0 0.0 0.0 0.0 0.0 0.0 0.0 0.0 0.0 0.0 0.0 0.0 0.0 0.0 0.0 0.0 0.0
0.0 0.0 0.0 0.0 0.0 0.0 0.0 0.0 0.0 0.0 0.0 0.0 0.0 0.0 0.0 0.0 0.0 0.0 0.0 0.0 0.0 0.0 0.0 0.0 0.0 0.0 0.0 0.0 0.0 0.0 0.0 0.0 0.0 0.0 0.0 0.0 0.0 0.0 0.0 0.0 0.0 0.0 0.0 0.0 0.0 0.0 0.0
0.0 0.0 0.0 0.0 0.0 0.0 0.0 0.0 0.0 0.0 0.0 0.0 0.0 0.0 0.0 0.0 0.0 0.0 0.0 0.0 0.0 0.0 0.0 0.0 0.0 0.0 0.0 0.0 0.0 0.0 0.0 0.0 0.0 0.0 0.0 0.0 0.0 0.0 0.0 0.0 0.0 0.0 0.0 0.0 0.0 0.0 0.0
0.0 0.0 0.0 0.0 0.0 0.0 0.0 0.0 0.0 0.0 0.0 0.0 0.0 0.0 0.0 0.0 0.0 0.0 0.0 0.0 0.0 0.0 0.0 0.0 0.0 0.0 0.0 0.0 0.0 0.0 0.0 0.0 0.0 0.0 0.0 0.0 0.0 0.0 0.0 0.0 0.0 0.0 0.0 0.0 0.0 0.0 0.0
0.0 0.0 0.0 0.0 0.0 0.0 0.0 0.0 0.0 0.0 0.0 0.0 0.0 0.0 0.0 0.0 0.0 0.0 0.0 0.0 0.0 0.0 0.0 0.0 0.0 0.0 0.0 0.0 0.0 0.0 0.0 0.0 0.0 0.0 0.0 0.0 0.0 0.0 0.0 0.0 0.0 0.0 0.0 0.0 0.0 0.0 0.0
0.0 0.0 0.0 0.0 0.0 0.0 0.0 0.0 0.0 0.0 0.0 0.0 0.0 0.0 0.0 0.0 0.0 0.0 0.0 0.0 0.0 0.0 0.0 0.0 0.0 0.0 0.0 0.0 0.0 0.0 0.0 0.0 0.0 0.0 0.0 0.0 0.0 0.0 0.0 0.0 0.1 0.0 0.0 0.0 0.0 0.0 0.0
0.0 0.0 0.0 0.0 0.0 0.0 0.0 0.0 0.0 0.0 0.0 0.0 0.0 0.0 0.0 0.0 0.0 0.0 0.0 0.0 0.0 0.0 0.0 0.0 0.0 0.0 0.0 0.0 0.0 0.0 0.0 0.0 0.0 0.0 0.0 0.0 0.1 0.0 0.0 0.0 0.0 0.0 0.1 0.1 0.0 0.0 0.0
0.0 0.0 0.0 0.0 0.0 0.0 0.0 0.0 0.0 0.0 0.0 0.0 0.0 0.0 0.0 0.0 0.0 0.0 0.0 0.0 0.0 0.0 0.0 0.0 0.0 0.0 0.0 0.0 0.0 0.0 0.0 0.0 0.0 0.0 0.1 0.0 0.0 0.0 0.0 0.0 0.1 0.0 0.0 0.0 0.0 0.0 0.0
0.0 0.0 0.0 0.0 0.0 0.0 0.0 0.0 0.0 0.0 0.0 0.0 0.0 0.0 0.0 0.0 0.0 0.0 0.0 0.0 0.0 0.0 0.4 0.0 0.0 0.0 0.0 0.0 0.0 0.0 0.0 0.0 0.0 0.0 0.0 0.0 0.0 0.0 0.0 0.2 0.4 0.0 0.0 0.0 0.0 0.0 1.7
0.0 0.0 0.0 0.0 0.0 0.0 0.0 0.0 0.0 0.0 0.0 0.0 0.0 0.0 0.0 0.0 0.0 0.0 0.0 0.0 0.0 0.0 35.8 0.0 0.0 0.0 0.0 0.0 0.0 0.0 0.0 0.0 0.0 0.0 0.0 0.2 0.0 0.0 0.0 0.0 0.0 0.0 0.1 0.0 0.0 0.0 0.0
0.0 0.0 0.0 0.0 0.0 0.0 0.0 0.0 0.0 0.0 0.0 0.0 0.0 0.0 0.0 0.0 0.0 0.0 0.0 0.0 0.0 2.0 33.4 0.0 0.0 0.1 0.0 0.0 0.0 0.0 0.0 0.0 0.0 0.0 0.0 0.0 0.0 0.0 0.0 0.0 0.0 0.0 0.0 0.0 0.5 0.4 2.2
0.0 0.0 0.0 0.0 0.0 0.0 0.0 0.0 0.0 0.0 0.0 0.0 0.0 0.0 0.0 0.0 0.0 0.0 0.0 0.0 43.7 42.0 0.0 0.0 0.0 0.0 0.0 0.3 0.6 0.0 0.0 1.0 0.9 0.1 0.7 0.0 0.0 0.0 0.0 0.0 0.0 0.0 0.0 4.4 4.9 5.1 0.9
0.0 0.0 0.0 0.0 0.0 0.0 0.0 0.0 0.0 0.0 0.0 0.0 0.0 0.0 0.0 0.0 0.0 0.0 0.0 5.7 51.2 7.8 0.0 0.0 0.0 0.0 1.2 1.9 1.3 1.1 0.0 0.3 0.0 0.1 0.3 0.4 2.1 0.0 0.0 0.0 0.0 0.2 0.0 1.0 7.6 5.1 1.4
0.0 0.0 0.0 0.0 0.0 0.0 0.0 0.0 0.0 0.0 0.0 0.0 0.0 0.0 0.0 0.0 0.0 0.0 0.1 52.4 23.5 2.0 0.1 0.5 0.0 0.1 1.2 1.4 2.3 1.9 0.1 0.7 0.0 0.9 4.5 3.9 5.1 0.0 0.0 0.0 0.0 0.0 0.2 0.0 4.3 1.6 5.9
0.0 0.0 0.0 0.0 0.0 0.0 0.0 0.0 0.0 0.0 0.0 0.0 0.0 0.0 0.0 0.0 0.0 0.0 28.2 37.7 9.1 0.0 0.0 0.4 7.4 7.2 7.1 2.6 4.6 4.6 1.6 0.0 0.0 0.0 0.0 10.9 13.2 0.0 0.0 0.0 0.0 0.0 0.0 3.2 7.3 22.7 17.8
0.0 0.0 0.0 0.0 0.0 0.0 0.0 0.0 0.0 0.0 0.0 0.0 0.0 1.3 0.0 0.0 0.0 3.4 48.3 17.5 3.5 0.0 0.0 5.5 10.9 10.8 7.0 7.3 7.1 9.0 7.7 0.0 0.0 0.0 0.0 2.2 13.6 1.2 0.0 0.0 0.5 1.2 2.1 1.0 5.4 11.7 19.6
0.0 0.0 0.0 0.0 0.0 0.0 0.0 0.0 0.0 0.0 0.0 0.0 0.0 24.4 0.0 0.0 17.2 34.4 23.4 7.1 0.0 0.0 0.0 1.8 4.1 7.6 9.9 8.3 11.6 15.7 10.5 1.0 0.0 1.3 3.6 2.4 9.6 6.6 2.1 0.0 0.0 0.0 4.6 5.8 17.2 17.9 19.5
0.0 0.0 0.0 0.0 0.0 0.0 0.0 0.0 0.0 0.0 0.0 0.0 11.9 7.8 0.0 0.0 28.7 16.9 5.3 3.1 2.4 3.5 1.9 4.5 7.0 9.5 10.4 11.1 13.9 9.3 6.4 0.0 0.0 0.0 5.1 2.2 12.0 9.9 6.5 0.0 0.0 3.3 1.7 7.5 17.0 20.9 28.8
0.0 0.0 0.0 0.0 0.0 0.0 0.0 0.0 0.0 0.0 0.0 0.0 6.9 32.0 5.8 5.3 2.4 4.9 6.3 7.0 7.2 0.0 2.4 0.1 7.9 8.9 10.8 6.6 6.4 8.8 6.4 0.0 0.0 0.0 0.0 0.0 9.5 9.2 8.9 8.8 7.1 10.4 6.7 3.9 14.7 31.2 19.3
0.0 0.0 0.0 0.0 0.0 0.0 0.0 0.0 0.0 0.0 0.0 0.0 17.9 29.9 0.0 21.7 16.3 7.6 7.0 9.8 6.4 5.4 0.5 0.4 7.9 6.0 8.0 11.1 6.2 4.3 3.9 2.6 0.0 0.0 0.0 0.4 14.6 8.4 6.4 7.3 3.8 3.9 9.0 7.7 7.9 9.2 14.8
0.0 0.0 0.0 0.0 0.0 0.0 0.0 0.0 0.0 0.0 0.0 0.0 57.2 13.1 3.3 4.5 0.4 6.8 14.5 15.1 7.4 2.5 8.7 4.7 4.8 2.4 3.9 8.0 6.9 5.9 5.0 2.0 4.8 0.0 0.5 0.6 8.7 10.0 8.1 6.0 3.1 7.4 9.4 5.9 4.7 6.3 7.1
0.0 0.0 0.0 0.0 0.0 0.0 0.0 0.0 0.0 0.0 0.0 0.0 1.1 0.0 8.8 4.8 3.7 9.1 7.8 4.8 5.2 6.1 0.6 1.8 4.5 7.2 6.5 4.2 1.1 1.1 1.9 2.2 4.2 5.9 5.2 5.2 7.6 5.9 7.7 2.0 2.9 9.2 8.4 4.9 2.9 1.4 1.7
0.0 0.0 0.0 0.0 0.0 0.0 0.0 0.0 0.0 0.0 0.0 0.0 0.0 0.4 18.8 16.9 8.6 5.2 2.0 2.8 5.2 4.3 7.6 2.8 1.3 4.3 0.0 0.0 0.0 0.0 0.9 0.5 0.4 1.8 2.4 7.6 6.0 8.2 7.1 5.3 14.9 6.0 2.4 0.9 0.2 0.4 0.5
0.0 0.0 0.0 0.0 0.0 0.0 0.0 0.0 0.0 0.0 0.0 0.0 0.0 0.0 13.2 15.4 4.1 4.8 4.5 4.3 1.0 2.8 4.5 3.0 1.2 0.0 0.0 1.4 5.6 7.0 3.9 3.1 1.1 0.4 0.8 2.3 7.1 12.3 11.3 5.8 4.1 1.3 0.9 0.5 0.8 1.0 0.7
0.0 0.0 0.0 0.0 0.0 0.0 0.0 0.0 0.0 0.0 0.0 0.0 0.0 0.0 3.8 20.0 6.8 1.6 6.6 5.1 5.7 4.3 5.6 3.5 0.0 0.0 0.0 5.0 11.0 9.4 5.2 3.1 2.1 1.6 0.0 1.1 4.4 18.3 16.2 11.1 5.0 1.5 0.3 0.1 0.1 1.2 0.6
0.0 0.0 0.0 0.0 0.0 0.0 0.0 0.0 0.0 0.0 0.0 0.0 0.0 0.0 2.7 27.7 0.9 1.4 3.7 5.2 3.4 3.6 6.4 1.4 1.7 1.2 0.9 9.9 10.6 8.0 5.2 3.3 5.1 3.9 3.2 6.5 9.7 20.9 17.7 20.2 7.8 1.6 1.0 0.5 4.4 6.1 1.4
0.0 0.0 0.0 0.0 0.0 0.0 0.0 0.0 0.0 0.0 0.0 0.0 0.0 0.0 0.0 18.7 1.0 0.0 0.2 0.7 2.0 2.1 6.2 3.8 6.9 6.3 11.6 13.3 11.4 9.1 7.8 5.9 3.3 2.0 3.8 5.7 9.7 8.9 13.2 18.4 13.6 2.8 1.9 4.5 3.7 1.0 0.9
0.0 0.0 0.0 0.0 0.0 0.0 0.0 0.0 0.0 0.0 0.0 0.0 4.7 0.0 0.0 2.6 0.3 0.0 0.0 0.0 0.0 0.0 1.0 1.8 4.9 4.8 3.4 10.9 8.3 5.9 4.7 5.8 3.1 6.7 1.2 8.0 4.3 6.3 7.6 12.1 7.9 6.5 5.5 2.4 2.2 2.3 2.2